Location: De Greiden
(52.9496°N, 5.9137°E)
Time: 23:34:12
(UTC+00:00)

USA 281 - Pass Details

Date: 24 January 2021
Orbit: 1072 x 1086 km, 106.0° (Epoch: 26 February)

Event Time Altitude Azimuth Distance (km) Brightness Sun altitude
Exits shadow 19:54:05 49° 353° (N) 1,374 3.7 -33.8°
Drops below altitude 10° 19:58:51 10° 335° (NNW) 2,941 5.9 -34.5°
Sets 20:01:23 0° 333° (NNW) 3,899 6.7 -34.9°
